FW5436 Weather Reports


Display with metric or nautical units.
time (UTC)temp
F
wind
direction
speed
MPH
gust
MPH
rain 1hr
in
rain 24hr
in
rain mn
in
humidity
%
barometer
mb
20260508190049 49 68 6.0 16.0 0.01 0.33 0.54 97 996.3
20260508185539 49 45 6.0 14.0 0.01 0.33 0.54 97 996.3
20260508185028 49 68 5.0 14.0 0.01 0.33 0.54 96 996.2
20260508184519 49 68 4.0 14.0 0.02 0.33 0.54 97 996.2
20260508184008 49 90 6.0 11.0 0.02 0.33 0.54 96 996.0
20260508183458 49 113 5.0 15.0 0.04 0.33 0.54 96 996.1
20260508182949 49 68 5.0 15.0 0.02 0.32 0.53 96 996.1
20260508182437 50 293 5.0 13.0 0.02 0.32 0.53 96 996.1
20260508181933 50 45 4.0 15.0 0.02 0.32 0.53 96 996.2
20260508181418 50 68 4.0 15.0 0.02 0.32 0.53 96 995.9
20260508180907 50 90 5.0 16.0 0.02 0.32 0.53 96 995.8
20260508180358 50 68 5.0 16.0 0.02 0.32 0.53 96 995.6
20260508175847 50 338 4.0 16.0 0.02 0.32 0.53 96 995.4
20260508175337 50 23 5.0 16.0 0.02 0.32 0.53 96 995.4
20260508174827 50 293 5.0 11.0 0.01 0.31 0.52 96 995.4
20260508174316 50 68 5.0 11.0 0.01 0.31 0.52 96 995.5
20260508173807 50 23 6.0 11.0 0.01 0.31 0.52 96 995.3
20260508173257 50 23 4.0 13.0 0.01 0.30 0.51 97 995.2
20260508172746 50 68 4.0 13.0 0.01 0.30 0.51 97 995.1
20260508171726 50 90 6.0 14.0 0.02 0.30 0.51 97 995.1
20260508171216 50 90 3.0 17.0 0.02 0.30 0.51 97 995.2
20260508170706 50 338 6.0 17.0 0.02 0.30 0.51 97 995.3
20260508170156 50 45 8.0 16.0 0.04 0.30 0.51 97 995.1
20260508165646 50 45 3.0 13.0 0.04 0.30 0.51 97 995.2
20260508165136 50 135 7.0 15.0 0.04 0.30 0.51 97 995.0
20260508164625 50 113 5.0 17.0 0.04 0.30 0.51 97 995.0
20260508164120 50 68 5.0 17.0 0.04 0.30 0.51 97 994.8
20260508163605 50 90 4.0 13.0 0.02 0.28 0.51 97 994.7
20260508163054 50 68 4.0 11.0 0.02 0.28 0.50 97 994.8
20260508162034 50 68 5.0 15.0 0.02 0.27 0.48 96 994.8
20260508161524 50 248 5.0 15.0 0.02 0.27 0.48 97 994.7
20260508161014 50 45 5.0 15.0 0.02 0.27 0.48 96 995.0
20260508160504 50 68 5.0 15.0 0.02 0.27 0.48 96 994.8
20260508155954 50 45 4.0 14.0 0.01 0.26 0.47 96 994.8
20260508154934 50 23 4.0 17.0 0.01 0.26 0.47 96 994.8
20260508154423 50 45 5.0 17.0 0.01 0.26 0.47 96 994.9
20260508153914 50 0 5.0 13.0 0.01 0.26 0.47 96 995.1
20260508153403 50 23 5.0 17.0 0.01 0.26 0.47 96 995.0
20260508152344 50 90 5.0 17.0 0.00 0.25 0.46 96 995.0
20260508151832 50 113 5.0 13.0 0.00 0.25 0.46 96 994.9
20260508151322 50 90 4.0 14.0 0.00 0.25 0.46 96 994.7
20260508150813 50 203 4.0 14.0 0.00 0.25 0.46 96 994.9
20260508150302 50 45 7.0 20.0 0.00 0.25 0.46 96 994.7
20260508145753 50 45 5.0 20.0 0.00 0.25 0.46 96 994.8
20260508145242 50 45 4.0 15.0 0.00 0.25 0.46 96 994.6
20260508144731 50 90 4.0 15.0 0.00 0.25 0.46 96 994.6
20260508144221 51 225 7.0 13.0 0.00 0.25 0.46 96 994.8
20260508143712 50 23 6.0 14.0 0.00 0.25 0.46 96 994.6
20260508143201 50 45 5.0 14.0 0.00 0.25 0.46 96 994.2
20260508141121 50 45 5.0 13.0 0.00 0.25 0.46 97 994.7
20260508140612 50 45 6.0 13.0 0.00 0.25 0.46 97 994.8
20260508135550 50 68 4.0 11.0 0.00 0.25 0.46 97 994.5
20260508135040 50 45 4.0 11.0 0.00 0.25 0.46 97 994.5
20260508134529 50 45 5.0 11.0 0.00 0.25 0.46 97 994.5
20260508134020 50 68 4.0 13.0 0.00 0.25 0.46 97 994.4
20260508133509 50 68 4.0 13.0 0.00 0.25 0.46 97 994.6
20260508132449 50 45 4.0 13.0 0.00 0.25 0.46 98 994.3
20260508131939 50 45 5.0 11.0 0.00 0.25 0.46 98 994.1
20260508131430 50 45 4.0 11.0 0.00 0.25 0.46 98 994.2
20260508130409 50 68 4.0 14.0 0.01 0.25 0.46 98 994.0
20260508125903 50 135 4.0 13.0 0.01 0.25 0.46 98 994.2
20260508125349 50 338 5.0 14.0 0.01 0.25 0.46 98 994.2
20260508124839 50 90 4.0 14.0 0.01 0.25 0.46 98 993.9
20260508124328 50 90 5.0 13.0 0.01 0.25 0.46 98 993.9
20260508123818 50 338 5.0 11.0 0.01 0.25 0.46 98 993.9
20260508123309 50 45 6.0 11.0 0.01 0.25 0.46 98 994.0
20260508121737 50 45 4.0 11.0 0.02 0.25 0.46 98 993.5
20260508121228 50 23 7.0 13.0 0.02 0.25 0.46 98 993.5
20260508120718 50 45 4.0 13.0 0.02 0.25 0.46 98 993.4
20260508120207 50 0 4.0 11.0 0.01 0.24 0.45 98 993.6
20260508115147 50 90 3.0 11.0 0.01 0.24 0.45 98 993.5
20260508114637 50 23 4.0 13.0 0.01 0.24 0.45 98 993.3
20260508114127 50 45 5.0 13.0 0.01 0.24 0.45 98 993.4
20260508113616 50 45 5.0 11.0 0.01 0.24 0.45 98 993.4
20260508113107 50 45 6.0 11.0 0.02 0.24 0.45 98 993.4
20260508112556 50 0 6.0 11.0 0.01 0.22 0.44 98 993.4
20260508112046 50 45 5.0 11.0 0.01 0.22 0.44 98 993.2
20260508111536 50 68 4.0 13.0 0.01 0.22 0.44 98 993.3
20260508111026 50 68 3.0 13.0 0.01 0.22 0.44 98 993.3
20260508110515 50 113 4.0 11.0 0.01 0.22 0.44 98 993.2
20260508110006 50 45 4.0 11.0 0.01 0.22 0.44 98 993.1
20260508104945 50 270 3.0 9.0 0.01 0.22 0.44 98 992.9
20260508104435 50 45 4.0 9.0 0.02 0.22 0.44 98 992.9
20260508103414 50 68 2.0 9.0 0.04 0.22 0.44 98 992.8
20260508102905 50 68 4.0 11.0 0.02 0.21 0.43 98 992.6
20260508102354 51 45 4.0 11.0 0.02 0.21 0.43 98 992.9
20260508101843 51 45 4.0 11.0 0.04 0.21 0.43 98 992.9
20260508101334 51 68 2.0 9.0 0.05 0.21 0.43 98 992.8
20260508100315 51 0 2.0 7.0 0.06 0.21 0.43 98 992.6
20260508095803 51 90 4.0 8.0 0.07 0.21 0.43 98 992.7
20260508095254 51 90 2.0 8.0 0.07 0.21 0.43 98 992.6
20260508094743 51 90 2.0 8.0 0.07 0.21 0.43 98 992.6
20260508094233 51 68 4.0 11.0 0.06 0.20 0.41 98 992.8
20260508093723 51 68 2.0 11.0 0.06 0.20 0.41 98 992.7
20260508092705 51 68 3.0 8.0 0.05 0.19 0.40 97 992.6
20260508092153 51 45 3.0 8.0 0.04 0.18 0.39 97 992.8
20260508091648 51 180 2.0 11.0 0.02 0.17 0.38 97 992.7
20260508091132 51 45 3.0 11.0 0.02 0.17 0.38 97 992.7
20260508090112 51 45 2.0 7.0 0.00 0.14 0.35 97 992.7
20260508085603 51 0 2.0 7.0 0.00 0.14 0.35 97 992.7
20260508085052 51 45 3.0 8.0 0.00 0.14 0.35 97 992.8
20260508084541 51 68 3.0 11.0 0.00 0.14 0.35 97 992.8
20260508084032 51 23 2.0 11.0 0.01 0.14 0.35 97 992.8
20260508083523 51 68 3.0 9.0 0.01 0.14 0.35 97 992.7
20260508083011 51 68 3.0 9.0 0.02 0.14 0.35 97 992.8
20260508081951 51 68 4.0 11.0 0.05 0.14 0.35 97 992.9
20260508081440 51 23 4.0 11.0 0.07 0.14 0.35 97 992.8
20260508080930 51 68 3.0 11.0 0.08 0.14 0.35 97 993.0
20260508080420 51 0 4.0 13.0 0.08 0.14 0.35 97 992.9
20260508075911 51 45 6.0 13.0 0.08 0.14 0.35 97 993.0
20260508075400 51 113 3.0 8.0 0.08 0.14 0.35 97 992.9
20260508074850 51 90 4.0 7.0 0.08 0.14 0.35 97 992.9
20260508073829 51 45 2.0 8.0 0.08 0.13 0.34 98 992.8
20260508073320 51 90 3.0 8.0 0.09 0.12 0.34 97 992.9
20260508072810 51 45 2.0 8.0 0.11 0.12 0.33 97 992.9
20260508072259 52 90 2.0 11.0 0.09 0.11 0.32 97 992.7
20260508071749 52 180 4.0 11.0 0.08 0.08 0.30 97 992.7
20260508070729 52 45 2.0 11.0 0.06 0.06 0.27 97 992.9
20260508070219 52 0 4.0 11.0 0.06 0.06 0.27 97 993.1
20260508065708 52 113 4.0 11.0 0.06 0.06 0.27 97 992.9
20260508065203 52 23 4.0 8.0 0.06 0.06 0.27 97 993.1
20260508064649 52 0 2.0 8.0 0.06 0.06 0.27 97 993.0
20260508063628 52 315 2.0 7.0 0.05 0.05 0.26 97 993.2
20260508063118 52 45 3.0 11.0 0.02 0.02 0.24 97 993.3
20260508062608 52 0 3.0 11.0 0.01 0.01 0.22 97 993.5
20260508062059 53 338 2.0 11.0 0.00 0.00 0.21 98 993.5
20260508061547 53 23 3.0 11.0 0.00 0.00 0.21 98 993.7
20260508060527 53 113 2.0 7.0 0.00 0.00 0.21 98 993.4
20260508060017 53 68 3.0 11.0 0.00 0.00 0.21 98 993.6
20260508055507 53 0 5.0 11.0 0.00 0.00 0.21 98 993.5
20260508053936 55 23 4.0 7.0 0.00 0.00 0.21 98 993.4
20260508053426 55 45 3.0 0.0 0.00 0.00 0.21 98 993.2
20260508053209 55 45 3.0 0.0 0.00 0.00 0.21 98 993.2
20260508052631 55 0 2.0 6.0 0.19 0.25 0.21 98 993.2
20260508052121 55 23 1.0 6.0 0.19 0.24 0.20 98 993.3
20260508051100 56 45 1.0 4.0 0.15 0.20 0.17 98 993.3
20260508050550 56 68 1.0 4.0 0.14 0.19 0.15 98 993.5
20260508050041 56 45 1.0 4.0 0.13 0.18 0.14 98 993.6
20260508045530 56 23 1.0 4.0 0.12 0.17 0.13 98 993.8
20260508044519 56 90 2.0 4.0 0.07 0.12 0.09 98 993.9
20260508044000 56 45 1.0 2.0 0.06 0.11 0.07 98 993.8
20260508043449 56 45 0.0 2.0 0.04 0.08 0.05 98 994.1
20260508042939 56 45 1.0 4.0 0.02 0.07 0.04 98 994.1
20260508041919 57 45 1.0 2.0 0.00 0.05 0.01 98 994.0
20260508041408 57 68 1.0 2.0 0.00 0.05 0.01 98 994.1
20260508040350 57 68 2.0 4.0 0.01 0.05 0.01 98 994.0
20260508035838 57 68 0.0 2.0 0.01 0.05 0.01 98 994.0
20260508034826 57 45 0.0 2.0 0.01 0.05 0.01 98 993.8
20260508034308 57 45 0.0 2.0 0.01 0.05 0.01 97 993.6
20260508033759 57 45 0.0 2.0 0.01 0.05 0.01 97 993.5
20260508033249 57 45 0.0 2.0 0.01 0.05 0.01 97 993.5
20260508032737 57 68 0.0 2.0 0.01 0.05 0.01 97 993.5
20260508032227 57 248 0.0 2.0 0.01 0.05 0.01 97 994.0
20260508031207 57 68 0.0 4.0 0.01 0.05 0.01 97 993.8
20260508030148 57 45 1.0 2.0 0.00 0.04 0.00 97 993.9
20260508025636 56 45 1.0 4.0 0.00 0.04 0.69 97 994.0
20260508025126 57 23 1.0 4.0 0.00 0.04 0.69 97 994.1
20260508024616 56 68 1.0 4.0 0.00 0.04 0.69 97 994.2
20260508024106 56 90 2.0 4.0 0.01 0.04 0.69 97 994.5
20260508022536 56 68 2.0 7.0 0.02 0.04 0.69 97 994.9
20260508022025 57 68 3.0 7.0 0.02 0.04 0.69 97 995.1
20260508021516 56 68 3.0 8.0 0.02 0.04 0.69 97 994.8
20260508021006 57 45 4.0 8.0 0.04 0.04 0.69 97 995.2
20260508020456 57 68 2.0 4.0 0.04 0.04 0.69 97 995.1
20260508015945 57 23 2.0 6.0 0.04 0.04 0.69 97 995.3
20260508014924 57 90 3.0 6.0 0.04 0.04 0.69 96 995.2
20260508014415 57 45 2.0 6.0 0.04 0.04 0.69 96 995.3
20260508013904 57 68 2.0 6.0 0.02 0.02 0.67 96 995.5
20260508013354 57 90 2.0 7.0 0.01 0.01 0.66 96 995.5
20260508012844 57 68 4.0 7.0 0.01 0.01 0.66 96 995.6
20260508012333 57 68 2.0 7.0 0.01 0.01 0.66 96 995.6
20260508011824 57 68 2.0 7.0 0.01 0.01 0.66 96 995.7
20260508011313 57 45 2.0 7.0 0.01 0.01 0.66 96 995.6
20260508010804 57 45 2.0 6.0 0.00 0.00 0.65 95 995.9
20260508010254 57 45 1.0 7.0 0.00 0.00 0.65 95 995.6
20260508005743 57 68 2.0 7.0 0.00 0.00 0.65 95 995.7
20260508005233 57 23 3.0 7.0 0.00 0.00 0.65 95 995.8
20260508004723 57 68 2.0 7.0 0.00 0.00 0.65 95 995.9
20260508004213 57 23 4.0 7.0 0.00 0.00 0.65 94 996.1
20260508003703 57 45 2.0 9.0 0.00 0.00 0.65 94 996.0
20260508003152 57 45 3.0 9.0 0.00 0.00 0.65 94 996.1
20260508002642 57 90 4.0 9.0 0.00 0.00 0.65 94 996.1
20260508002132 58 45 4.0 8.0 0.00 0.00 0.65 93 996.2
20260508001111 58 45 4.0 8.0 0.00 0.00 0.65 93 996.5
20260508000618 58 113 5.0 9.0 0.00 0.00 0.65 93 996.5
20260508000053 58 90 4.0 14.0 0.00 0.00 0.65 93 996.4
20260507235544 58 68 7.0 14.0 0.00 0.00 0.65 93 996.7
20260507235031 58 68 4.0 11.0 0.00 0.00 0.65 93 996.6
20260507234520 58 0 4.0 9.0 0.00 0.00 0.65 93 996.8
20260507234011 59 23 3.0 9.0 0.00 0.00 0.65 93 997.0
20260507232951 59 23 4.0 9.0 0.00 0.00 0.65 94 996.9
20260507232441 59 45 4.0 7.0 0.00 0.00 0.65 94 996.6
20260507231930 59 23 2.0 7.0 0.00 0.00 0.65 94 996.5
20260507231420 60 68 3.0 11.0 0.00 0.00 0.65 93 996.4
20260507230910 60 45 2.0 11.0 0.00 0.00 0.65 93 996.5
20260507230359 60 45 2.0 8.0 0.00 0.00 0.65 93 996.2
20260507225850 60 68 4.0 8.0 0.00 0.00 0.65 92 996.1
20260507225340 60 68 2.0 8.0 0.00 0.00 0.65 92 995.8
20260507224829 60 68 2.0 6.0 0.00 0.00 0.65 91 995.8
20260507224319 60 0 2.0 6.0 0.00 0.00 0.65 91 996.0
20260507223810 60 68 2.0 4.0 0.00 0.00 0.65 90 995.8
20260507223259 61 45 2.0 4.0 0.00 0.00 0.65 91 995.7
20260507222749 61 90 1.0 2.0 0.00 0.00 0.65 91 995.8
20260507222239 61 68 1.0 4.0 0.00 0.00 0.65 90 995.6
20260507221728 61 45 2.0 4.0 0.00 0.00 0.65 90 995.8
20260507221218 61 45 2.0 2.0 0.00 0.00 0.65 90 995.9
20260507220708 61 45 1.0 2.0 0.00 0.00 0.65 90 995.8
20260507215648 61 45 0.0 2.0 0.00 0.00 0.65 89 996.0
20260507215138 61 113 0.0 0.0 0.00 0.00 0.65 89 995.7
20260507214627 61 45 0.0 4.0 0.00 0.00 0.65 89 995.6
20260507214117 61 45 0.0 4.0 0.00 0.00 0.65 89 995.4
20260507213608 61 45 0.0 2.0 0.00 0.00 0.65 89 995.4
20260507213057 61 45 1.0 2.0 0.00 0.00 0.65 89 995.8
20260507212547 61 45 1.0 2.0 0.00 0.00 0.65 88 995.5
20260507212037 62 0 0.0 2.0 0.00 0.00 0.65 88 995.3
20260507211527 62 68 0.0 2.0 0.00 0.00 0.65 87 995.2
20260507211017 62 0 0.0 0.0 0.00 0.00 0.65 87 995.2
20260507210512 62 0 0.0 0.0 0.00 0.00 0.65 87 995.5
20260507205956 62 0 0.0 2.0 0.00 0.00 0.65 86 995.6
20260507205447 62 0 0.0 2.0 0.00 0.00 0.65 86 995.6
20260507204936 62 68 1.0 2.0 0.00 0.00 0.65 86 995.6
20260507203916 62 68 2.0 4.0 0.00 0.00 0.65 86 995.6
20260507203405 62 293 2.0 4.0 0.00 0.00 0.65 86 995.8
20260507202349 62 45 2.0 4.0 0.00 0.00 0.65 86 996.3
20260507201326 62 90 2.0 6.0 0.00 0.00 0.65 86 996.3
20260507200815 62 45 2.0 6.0 0.00 0.00 0.65 86 996.2
20260507195754 62 45 1.0 6.0 0.00 0.00 0.65 86 996.2
20260507195254 62 113 3.0 6.0 0.00 0.00 0.65 86 996.1
20260507194224 63 45 2.0 9.0 0.00 0.00 0.65 85 996.2
20260507193714 62 68 2.0 11.0 0.00 0.00 0.65 85 996.1
20260507193204 62 68 5.0 11.0 0.00 0.00 0.65 86 996.1
20260507192653 62 68 4.0 7.0 0.00 0.00 0.65 86 996.0
20260507192144 62 45 2.0 7.0 0.00 0.00 0.65 86 995.7
20260507191635 62 68 2.0 8.0 0.00 0.00 0.65 86 995.6
20260507191124 62 113 4.0 8.0 0.00 0.00 0.65 86 995.5